ELEKTRO-L 4 (55506 NORAD) Tracking and Keplerian Element Data

This shows tracking and keplerian element data for the satellite.

Feedback or suggestion? Click here.




ElementValue
Catalog55506
NameELEKTRO-L 4
Epoch Orbit91
Epoch Day126.91599834
Epoch Year2023
RAAN290.2165
Inclination0.3395
Eccentricity0.0002083
Argument of Perigee47.0725
Mean Anonmoly22.7197
Mean Motion1.00271555
Decay Rate-4.5E-07
L11 55506U 23016A 23126.91599834 -.00000045 00000+0 00000+0 0 9993
L22 55506 0.3395 290.2165 0002083 47.0725 22.7197 1.00271555 910



Live tracking and technical data element details for ELEKTRO-L 4 (NORAD 55506). ELEKTRO-L 4 can be tracked NOW for your location showing map with azimuth and elevation plus other details from your city location.







IsCatalogInMostPopularTable: catalog: 55506, numindb: -1

Insert: records affected: 1


GetName: 55506 ELEKTRO-L 4

Hit Count: inserted at: Mon, 05 Jun 2023 19:46:41 GMT